Regional Weather Roundup
Issued by NWS

Home | Current Version | Previous Version | Graphics & Text | Print | Product List | Glossary On
Versions: 1 2 3 4 5 6 7 8 9 10 11 12 13 14 15 16 17 18 19 20 21 22 23 24 25 26 27 28 29 30 31 32 33 34 35 36 37 38 39 40 41 42 43 44 45 46 47 48 49 50
000
ASUS43 KLMK 251010
RWRKY
KENTUCKY REGIONAL WEATHER ROUNDUP
NATIONAL WEATHER SERVICE LOUISVILLE KY
600 AM EDT WED APR 25 2018

NOTE "FAIR" INDICATES FEW OR NO CLOUDS BELOW 12,000 FEET
WITH NO SIGNIFICANT WEATHER AND/OR OBSTRUCTIONS TO VISIBILITY.

KYZ001>023-026-027-061>063-070>075-251100-
WESTERN AND SOUTH CENTRAL KENTUCKY

CITY           SKY/WX    TMP DP  RH WIND       PRES   REMARKS
PADUCAH        FAIR      51  49  92 W7        29.98R
HENDERSON      FOG       46  46 100 CALM      29.97R VSB 1/2
OWENSBORO      FOG       53  53 100 NW3       29.96S VSB 1/4
HOPKINSVILLE   NOT AVBL
BOWLING GREEN  CLOUDY    56  53  90 N3        29.94S
GLASGOW        CLOUDY    54  52  94 NW3       29.93S
$$

KYZ024-025-028>034-038-045-046-053-251100-
NORTH CENTRAL KENTUCKY

CITY           SKY/WX    TMP DP  RH WIND       PRES   REMARKS
LOUISVILLE/SDF CLOUDY    56  52  86 NW7       29.92R
LOUISVILLE/LOU CLOUDY    55  54  96 NW5       29.92R
FORT KNOX      CLOUDY   N/A N/A N/A NW6       29.95R
$$

KYZ035>037-039>044-047>052-055>060-089>105-251100-
NORTHEAST KENTUCKY

CITY           SKY/WX    TMP DP  RH WIND       PRES   REMARKS
LEXINGTON      CLOUDY    53  50  89 NW6       29.89R
COVINGTON      CLOUDY    53  51  93 VRB7      29.88S
FRANKFORT      CLOUDY    54  50  86 NW5       29.88S
$$

KYZ054-064>069-076>088-106>120-251100-
SOUTHEAST KENTUCKY

CITY           SKY/WX    TMP DP  RH WIND       PRES   REMARKS
JACKSON        CLOUDY    53  50  89 VRB5      29.86S
LONDON         CLOUDY    53  52  96 NW5       29.88R
SOMERSET       CLOUDY    52  52 100 CALM      29.91R
MIDDLESBORO    CLOUDY    54  53  97 CALM      29.87S
MONTICELLO     LGT RAIN  54  53  97 NW6       29.92R
$$





USA.gov is the U.S. government's official web portal to all federal, state and local government web resources and services.